パンスターズ彗星

C/2012 E3 ( PanSTARRS )

English version
Home page
Updated on April 6, 2013

---------------------------------------------------------------------

・ プロフィール

発見日 2012年3月14日
発見光度 20.2等
発見者 Pan-STARRS 1 telescope (Haleakala)

・ 写真集

・ 軌道要素

Epoch 2011 Apr. 29.0 TT = JDT 2455680.5
T 2011 May 12.89904 TT                                  MPC
q   3.8271293            (2000.0)            P               Q
z  +0.0046010      Peri.  103.50731     -0.20720672     -0.97389611
 +/-0.0000310      Node     5.52432     -0.63282541     +0.06117633
e   0.9823916      Incl.  105.66702     +0.74605454     -0.21859512
From 71 observations 2012 Mar. 14-June 18, mean residual 0".4.

・ 光度変化

        m1 = 9.5 + 5 logΔ + 10.0 log r

---------------------------------------------------------------------

軌道要素はM.P.E.C. 2013-B90に掲載されたものです。
光度グラフはComet for Windowsで作成したものです。

---------------------------------------------------------------------

Copyright(C) Seiichi Yoshida (comet@aerith.net). All rights reserved.